Flag for Switzerland Weather past 2 weeks in Pully, Vaud, Switzerland

Now
56 °F

Cool.


Feels Like: 55 °F
Forecast: 49 / 76 °F
Wind: 5 mph from Southwest

Location: Aigle

Current Time: Sep 16, 2014 at 5:35:23 AM

Latest Report: Sep 16, 2014 at 4:00 AM


Visibility: N/A

Pressure: 29.99 "Hg

Humidity: 92%

Dew point: 53 °F

Location of PullyLocation

Historic Weather in Pully — Graph

°F

Pully temperature yesterday

Maximum temperature yesterday: 69 °F (at 3:00 PM)
Minimum temperature yesterday: 52 °F (at 5:00 AM)
Average temperature yesterday: 60 °F

Past Weeks' High & Low Weather Summary

 TemperatureHumidityPressure
High76 °F (Sep 7, 4:00 PM)100% (Sep 10, 7:00 AM)30.12 "Hg (Sep 10, 7:00 AM)
Low46 °F (Sep 2, 7:00 AM)45% (Sep 2, 5:00 PM)29.84 "Hg (Sep 6, 5:00 PM)
Average62 °F80%29.99 "Hg
* Reported Sep 1 4:00 AM — Sep 16 4:00 AM, Pully, Weather by CustomWeather, © 2014

Note: Actual official high and low records may vary slightly from our data, if they occured in-between our weather recording intervals... More about our weather records

Advertising

Pully weather history for previous 24 hours

 ConditionsComfort  
Time TempWeatherWind HumidityBarometerVisibility
4:00 AM
Sep 16
56 °FCool.5 mph92%29.99 "HgN/A
3:00 AM56 °FCool.5 mph91%29.99 "HgN/A
2:00 AM56 °FCool.1 mph94%30.00 "HgN/A
1:00 AM58 °FCool.3 mph92%29.98 "HgN/A
12:00 AM60 °FCool.5 mph89%29.98 "HgN/A
11:00 PM
Sep 15
62 °FCool.5 mph88%29.97 "HgN/A
10:00 PM62 °FCool.3 mph85%29.96 "HgN/A
9:00 PM62 °FCool.2 mph95%29.95 "HgN/A
8:00 PM63 °FOvercast.2 mph95%29.94 "Hg12 mi
7:00 PM65 °FMild.3 mph90%29.92 "HgN/A
6:00 PM65 °FMild.2 mph89%29.91 "HgN/A
5:00 PM67 °FScattered clouds.2 mph74%29.91 "Hg19 mi
4:00 PM69 °FMild.5 mph71%29.91 "HgN/A
3:00 PM69 °FMild.8 mph67%29.93 "HgN/A
2:00 PM68 °FScattered clouds.7 mph68%29.95 "Hg19 mi
1:00 PM68 °FMild.7 mph70%29.96 "HgN/A
12:00 PM65 °FMild.5 mph75%29.98 "HgN/A
11:00 AM64 °FScattered clouds.2 mph80%30.00 "Hg11 mi
10:00 AM60 °FCool.1 mph82%30.01 "HgN/A
9:00 AM58 °FCool.1 mph94%30.01 "HgN/A
8:00 AM53 °FFog.2 mph95%30.01 "Hg3 mi
7:00 AM52 °FCool.2 mph96%29.99 "HgN/A
6:00 AM53 °FCool.3 mph97%30.00 "HgN/A
5:00 AM52 °FPassing clouds.1 mph97%30.01 "Hg22 mi
Weather by CustomWeather, © 2014

See weather overviewHow to use our weather pages